This is the latest recevied weather packets stored in our database for station/object EA1FWM-12. If no packets are shown the sender has not sent any weather packets the latest 10 day(s).
| Time | Temp. | Humidity | Pressure | Rain* | Wind** | Luminosity | Snow |
|---|---|---|---|---|---|---|---|
| 1787436782 | 15.56° C | 67% | 1018.5 hPa | - | - | - | - |
| 1787435883 | 15.56° C | 66% | 1018.5 hPa | - | - | - | - |
| 1787434982 | 15.56° C | 66% | 1018.5 hPa | - | - | - | - |
| 1787434082 | 16.11° C | 64% | 1018.5 hPa | - | - | - | - |
| 1787433182 | 16.11° C | 63% | 1018.6 hPa | - | - | - | - |
| 1787432283 | 16.67° C | 62% | 1018.6 hPa | - | - | - | - |
| 1787431504 | 17.22° C | 61% | 1018.6 hPa | - | - | - | - |
| 1787431382 | 17.22° C | 61% | 1018.6 hPa | - | - | - | - |
| 1787430483 | 17.22° C | 60% | 1018.4 hPa | - | - | - | - |
| 1787429583 | 18.33° C | 58% | 1018.3 hPa | - | - | - | - |
| 1787428697 | 18.89° C | 56% | 1018.2 hPa | - | - | - | - |
| 1787427786 | 19.44° C | 54% | 1018.1 hPa | - | - | - | - |
| 1787426885 | 20.56° C | 53% | 1017.9 hPa | - | - | - | - |
| 1787425986 | 21.11° C | 52% | 1017.6 hPa | - | - | - | - |
| 1787425087 | 21.67° C | 51% | 1017.5 hPa | - | - | - | - |
| 1787424187 | 25° C | 50% | 1017.5 hPa | - | - | - | - |
| 1787423551 | 23.33° C | 48% | 1017.4 hPa | - | - | - | - |
| 1787422652 | 23.89° C | 46% | 1017.2 hPa | - | - | - | - |
| 1787421759 | 25° C | 44% | 1017.1 hPa | - | - | - | - |
| 1787420853 | 26.11° C | 41% | 1017 hPa | - | - | - | - |
| 1787419954 | 27.22° C | 40% | 1016.8 hPa | - | - | - | - |
| 1787419053 | 27.78° C | 39% | 1016.7 hPa | - | - | - | - |
| 1787418285 | 28.89° C | 36% | 1016.4 hPa | - | - | - | - |
| 1787418154 | 28.89° C | 36% | 1016.4 hPa | - | - | - | - |
| 1787417255 | 29.44° C | 35% | 1016.5 hPa | - | - | - | - |
* Rain since midnight (hover to see other rain measurements)
** Current wind speed in m/s (hover to see current wind gust speed)